�v������,1F���[���G�A�R��(kWh),1F���͔�(kWh),2F�n�[�g���ƕ�(kWh),2F������(kWh),2F���̑�(kWh),2F�S�M������i�������j(kWh),2F�S�M������i�n�[�g�j(kWh),2F�S�M������i�������k�j(kWh),2F�S�M������i��������j(kWh),�T�[�o���[��(kWh),3F���q���b�J�[(kWh),3F�X�^�W�I(kWh),3FBEMS��(kWh),3F���̑�(kWh),3F�S�M������i���c���j(kWh),3F�S�M������i�H���j(kWh)
2022-07-01 00:00:00,0,0,0,0,0,0.02,0.05,0.05,0.05,0,0,0,0,0,0.12,0.05
2022-07-01 00:10:00,0,0,0,0,0,0.02,0.06,0.06,0.06,0.1,0,0,0,0,0.13,0.04
2022-07-01 00:20:00,0,0,0,0,0,0.02,0.05,0.05,0.05,0,0,0,0,0,0.12,0.05
2022-07-01 00:30:00,0,0,0,0,0,0.02,0.05,0.06,0.06,0,0,0,0,0,0.13,0.04
2022-07-01 00:40:00,0,0,0,0,0,0.01,0.06,0.05,0.05,0.1,0,0,0,0,0.13,0.05
2022-07-01 00:50:00,0,0,0,0,0,0.02,0.05,0.06,0.06,0,0,0,0,0,0.13,0.04
2022-07-01 01:00:00,0,0,0,0,0,0.02,0.06,0.05,0.06,0.1,0,0,0,0,0.12,0.05
2022-07-01 01:10:00,0,0,0,0,0,0.02,0.05,0.06,0.05,0,0,0,0,0,0.13,0.05
2022-07-01 01:20:00,0,0,0,0,0,0.02,0.05,0.05,0.06,0,0,0,0,0,0.13,0.04
2022-07-01 01:30:00,0,0,0,0,0,0.02,0.06,0.06,0.05,0.1,0,0,0,0,0.12,0.05
2022-07-01 01:40:00,0,0,0,0,0,0.02,0.05,0.05,0.06,0,0,0,0,0,0.13,0.05
2022-07-01 01:50:00,0,0,0,0,0,0.02,0.06,0.06,0.05,0.1,0,0,0,0,0.13,0.04
2022-07-01 02:00:00,0,0,0,0,0,0.02,0.05,0.05,0.06,0,0,0,0,0,0.13,0.05
2022-07-01 02:10:00,0,0,0,0,0,0.02,0.05,0.06,0.05,0,0,0,0,0,0.12,0.04
2022-07-01 02:20:00,0,0,0,0,0,0.02,0.06,0.05,0.06,0.1,0,0,0,0,0.13,0.05
2022-07-01 02:30:00,0,0,0,0,0,0.02,0.05,0.05,0.05,0,0,0,0,0,0.12,0.04
2022-07-01 02:40:00,0,0,0,0,0,0.02,0.06,0.06,0.06,0.1,0,0,0,0,0.13,0.05
2022-07-01 02:50:00,0,0,0,0,0,0.02,0.05,0.05,0.05,0,0,0,0,0,0.13,0.04
2022-07-01 03:00:00,0,0,0,0,0,0.01,0.05,0.06,0.06,0,0,0,0,0,0.12,0.05
2022-07-01 03:10:00,0,0,0,0,0,0.02,0.06,0.05,0.05,0.1,0,0,0,0,0.13,0.05
2022-07-01 03:20:00,0,0,0,0,0,0.02,0.05,0.06,0.06,0,0,0,0,0,0.12,0.04
2022-07-01 03:30:00,0,0,0,0,0,0.02,0.05,0.05,0.05,0,0,0,0,0,0.13,0.04
2022-07-01 03:40:00,0,0,0,0,0,0.02,0.06,0.06,0.06,0.1,0,0,0,0,0.12,0.05
2022-07-01 03:50:00,0,0,0,0,0,0.02,0.05,0.05,0.05,0,0,0,0,0,0.13,0.04
2022-07-01 04:00:00,0,0,0,0,0,0.02,0.05,0.05,0.05,0.1,0,0,0,0,0.12,0.05
2022-07-01 04:10:00,0,0,0,0,0,0.02,0.06,0.06,0.06,0,0,0,0,0,0.13,0.04
2022-07-01 04:20:00,0,0,0,0,0,0.02,0.05,0.05,0.05,0,0,0,0,0,0.12,0.05
2022-07-01 04:30:00,0,0,0,0,0,0.02,0.05,0.06,0.05,0.1,0,0,0,0,0.12,0.04
2022-07-01 04:40:00,0,0,0,0,0,0.01,0.05,0.05,0.06,0,0,0,0,0,0.13,0.05
2022-07-01 04:50:00,0,0,0,0,0,0.02,0.06,0.05,0.05,0.1,0,0,0,0,0.12,0.04
2022-07-01 05:00:00,0,0,0,0,0,0.02,0.05,0.06,0.06,0,0,0,0,0,0.13,0.05
2022-07-01 05:10:00,0,0,0,0,0,0.02,0.05,0.05,0.05,0,0,0,0,0,0.12,0.04
2022-07-01 05:20:00,0,0,0,0,0,0.02,0.06,0.05,0.05,0.1,0,0,0,0,0.12,0.05
2022-07-01 05:30:00,0,0,0,0,0,0.02,0.05,0.06,0.06,0,0,0,0,0,0.13,0.04
2022-07-01 05:40:00,0,0,0,0,0,0.02,0.05,0.05,0.05,0,0,0,0,0,0.12,0.05
2022-07-01 05:50:00,0,0,0,0.1,0,0.02,0.06,0.06,0.06,0.1,0,0,0,0,0.13,0.04
2022-07-01 06:00:00,0,0,0,0,0,0.02,0.05,0.05,0.05,0,0,0,0,0,0.13,0.05
2022-07-01 06:10:00,0,0,0,0,0,0.02,0.05,0.06,0.05,0.1,0,0,0,0,0.12,0.04
2022-07-01 06:20:00,0,0.1,0,0,0.6200000000000001,0.01,0.06,0.05,0.06,0,0,0,0,0.6000000000000014,0.12,0.05
2022-07-01 06:30:00,0,0,0,0,1.54,0.02,0.05,0.05,0.05,0,0,0,0,1.5,0.13,0.04
2022-07-01 06:40:00,0,0,0,0,1.1300000000000001,0.02,0.05,0.06,0.06,0.1,0,0,0,1.1000000000000014,0.12,0.05
2022-07-01 06:50:00,0,0,0,0,0.7400000000000001,0.02,0.05,0.05,0.05,0,0,0,0,0.6999999999999993,0.13,0.04
2022-07-01 07:00:00,0,0,0,0,0.6400000000000001,0.02,0.06,0.05,0.05,0,0,0,0,0.6099999999999994,0.12,0.05
2022-07-01 07:10:00,0,0,0.30000000000000004,0,0.9400000000000001,0.02,0.05,0.06,0.05,0.1,0,0,0,0.8999999999999986,0.13,0.04
2022-07-01 07:20:00,0,0,0.30000000000000004,0,1.03,0.02,0.05,0.05,0.06,0,0,0,0,1,0.12,0.05
2022-07-01 07:30:00,0,0,0.1,0,1.1400000000000001,0.02,0.05,0.05,0.06,0.1,0,0,0,1.1099999999999994,0.13,0.04
2022-07-01 07:40:00,0,0,0.2,0.1,0.44,0.01,0.07,0.06,0.09,0,0,0,0,0.4299999999999997,0.12,0.04
2022-07-01 07:50:00,0,0,0.2,0.1,1.04,0.02,0.06,0.05,0.1,0,0,0,0,1.0199999999999996,0.12,0.05
2022-07-01 08:00:00,0,0,0.30000000000000004,0.1,1.53,0.02,0.07,0.09,0.09,0.1,0,0,0,1.5,0.13,0.05
2022-07-01 08:10:00,0,0,0.2,0,1.4400000000000002,0.02,0.06,0.1,0.09,0,0,0,0,1.3999999999999986,0.12,0.04
2022-07-01 08:20:00,0,0,0.2,0.1,1.4400000000000002,0.02,0.07,0.09,0.09,0.1,0,0,0,1.3999999999999986,0.12,0.04
2022-07-01 08:30:00,0,0,0.30000000000000004,0,1.33,0.02,0.06,0.1,0.09,0,0,0,0,1.3000000000000007,0.13,0.05
2022-07-01 08:40:00,0,0,0.2,0.1,1.2400000000000002,0.02,0.06,0.09,0.09,0,0,0,0,1.1999999999999993,0.12,0.04
2022-07-01 08:50:00,0,0,0.2,0.1,1.34,0.01,0.07,0.09,0.09,0.1,0,0,0,1.3000000000000007,0.12,0.05
2022-07-01 09:00:00,0,0,0.2,0,1.2400000000000002,0.02,0.06,0.1,0.1,0,0,0,0,1.2100000000000009,0.13,0.04
2022-07-01 09:10:00,0,0.1,0.2,0,1.33,0.02,0.07,0.09,0.09,0.1,0,0,0,1.3000000000000007,0.12,0.05
2022-07-01 09:20:00,0,0,0.2,0,1.2400000000000002,0.02,0.06,0.1,0.09,0,0,0,0,1.1999999999999993,0.13,0.04
2022-07-01 09:30:00,0,0,0.2,0,1.2400000000000002,0.02,0.07,0.09,0.09,0.1,0,0,0.01,1.1999999999999993,0.12,0.04
2022-07-01 09:40:00,0.03,0,0.30000000000000004,0,1.1400000000000001,0.02,0.06,0.1,0.1,0,0,0,0.16,1.1000000000000014,0.12,0.05
2022-07-01 09:50:00,0.07,0,0.1,0,0.53,0.02,0.06,0.09,0.09,0,0,0,0.11,0.5,0.13,0.04
2022-07-01 10:00:00,0.07,0,0.30000000000000004,0,1.2400000000000002,0.02,0.07,0.1,0.09,0.1,0,0,0,1.1999999999999993,0.12,0.05
2022-07-01 10:10:00,0.05,0,0.30000000000000004,0,1.2400000000000002,0.01,0.06,0.09,0.09,0,0,0,0,1.1999999999999993,0.12,0.04
2022-07-01 10:20:00,0.04,0,0.2,0,1.2300000000000002,0.02,0.07,0.1,0.09,0.1,0.1,0,0.04,1.1999999999999993,0.13,0.05
2022-07-01 10:30:00,0.01,0,0.2,0,1.34,0.02,0.06,0.09,0.09,0,0,0,0.02,1.3000000000000007,0.12,0.04
2022-07-01 10:40:00,0,0,0.2,0,1.34,0.02,0.06,0.09,0.09,0.1,0,0,0,1.3000000000000007,0.12,0.05
2022-07-01 10:50:00,0,0.1,0.2,0,1.1400000000000001,0.02,0.07,0.1,0.1,0,0,0,0,1.1000000000000014,0.13,0.04
2022-07-01 11:00:00,0,0,0.2,0,1.33,0.02,0.06,0.09,0.09,0.1,0,0,0,1.3000000000000007,0.12,0.05
2022-07-01 11:10:00,0,0,0.2,0,1.2400000000000002,0.01,0.07,0.09,0.09,0,0,0,0,1.1999999999999993,0.12,0.04
2022-07-01 11:20:00,0,0,0.2,0,1.2400000000000002,0.02,0.06,0.1,0.09,0.1,0,0,0,1.1999999999999993,0.12,0.04
2022-07-01 11:30:00,0,0,0.2,0,1.34,0.02,0.06,0.09,0.09,0,0,0,0,1.3099999999999987,0.13,0.05
2022-07-01 11:40:00,0,0,0.2,0,1.2300000000000002,0.02,0.07,0.09,0.09,0.1,0,0,0,1.1999999999999993,0.12,0.04
2022-07-01 11:50:00,0,0,0.30000000000000004,0,1.4400000000000002,0.02,0.06,0.1,0.09,0,0,0,0,1.4100000000000001,0.12,0.05
2022-07-01 12:00:00,0,0,0.2,0,1.34,0.02,0.07,0.09,0.09,0.1,0,0,0,1.3100000000000023,0.13,0.04
2022-07-01 12:10:00,0,0,0.2,0,1.1400000000000001,0.02,0.06,0.1,0.1,0,0,0,0,1.1199999999999974,0.13,0.05
2022-07-01 12:20:00,0,0,0.2,0,1.33,0.02,0.07,0.1,0.09,0.1,0,0,0,1.3100000000000023,0.12,0.04
2022-07-01 12:30:00,0,0,0.2,0,1.34,0.01,0.06,0.09,0.1,0,0,0,0,1.3200000000000003,0.12,0.04
2022-07-01 12:40:00,0,0,0.2,0,1.2400000000000002,0.02,0.07,0.1,0.09,0.1,0,0,0,1.2100000000000009,0.13,0.05
2022-07-01 12:50:00,0,0,0.2,0.1,1.1400000000000001,0.02,0.06,0.06,0.09,0,0,0,0,1.120000000000001,0.13,0.04
2022-07-01 13:00:00,0,0,0.1,0.1,1.2300000000000002,0.02,0.07,0.05,0.1,0.1,0,0,0,1.1999999999999993,0.12,0.05
2022-07-01 13:10:00,0,0,0.2,0,1.34,0.02,0.06,0.06,0.09,0,0,0,0,1.3099999999999987,0.12,0.04
2022-07-01 13:20:00,0,0,0.2,0.1,0.9400000000000001,0.02,0.06,0.05,0.09,0.1,0,0,0,0.8999999999999986,0.13,0.05
2022-07-01 13:30:00,0,0,0.2,0.1,1.34,0.02,0.07,0.06,0.09,0,0,0,0,1.3100000000000023,0.12,0.04
2022-07-01 13:40:00,0,0,0.2,0.1,1.33,0.02,0.06,0.05,0.09,0.1,0.1,0,0,1.3100000000000023,0.13,0.04
2022-07-01 13:50:00,0,0,0.2,0.1,0.9400000000000001,0.01,0.07,0.05,0.1,0,0,0,0,0.9099999999999966,0.12,0.05
2022-07-01 14:00:00,0,0,0.30000000000000004,0,0.54,0.02,0.06,0.06,0.09,0.1,0,0,0,0.509999999999998,0.13,0.04
2022-07-01 14:10:00,0,0,0.1,0.1,1.4400000000000002,0.02,0.07,0.05,0.09,0,0,0,0,1.3999999999999986,0.12,0.05
2022-07-01 14:20:00,0,0,0.30000000000000004,0.1,1.4300000000000002,0.02,0.06,0.05,0.09,0.1,0,0,0,1.3999999999999986,0.12,0.04
2022-07-01 14:30:00,0,0,0.2,0,1.4400000000000002,0.02,0.06,0.06,0.09,0,0,0,0,1.3999999999999986,0.13,0.05
2022-07-01 14:40:00,0,0,0.2,0,1.34,0.02,0.07,0.05,0.09,0.1,0,0,0,1.3100000000000023,0.12,0.04
2022-07-01 14:50:00,0,0,0.2,0,1.4300000000000002,0.02,0.06,0.05,0.09,0.1,0,0,0,1.4299999999999997,0.12,0.04
2022-07-01 15:00:00,0,0,0.2,0.1,1.54,0.01,0.06,0.06,0.09,0,0,0,0,1.5100000000000016,0.12,0.05
2022-07-01 15:10:00,0,0.2,0.2,0.1,1.54,0.02,0.07,0.05,0.1,0.1,0,0,0,1.519999999999996,0.13,0.04
2022-07-01 15:20:00,0.07,0.30000000000000004,0.1,0.1,1.4400000000000002,0.02,0.06,0.06,0.09,0,0,0,0,1.4100000000000001,0.12,0.05
2022-07-01 15:30:00,0,0.1,0.2,0.1,1.53,0.02,0.07,0.09,0.09,0.1,0,0,0,1.5199999999999996,0.12,0.04
2022-07-01 15:40:00,0,0.2,0.2,0,1.4400000000000002,0.02,0.06,0.1,0.09,0,0,0,0,1.4100000000000001,0.13,0.04
2022-07-01 15:50:00,0,0.30000000000000004,0.2,0,1.34,0.02,0.06,0.09,0.09,0.1,0,0,0,1.3399999999999999,0.13,0.05
2022-07-01 16:00:00,0,0.1,0.2,0,1.4400000000000002,0.02,0.07,0.09,0.09,0,0,0,0,1.4299999999999997,0.13,0.04
2022-07-01 16:10:00,0,0.1,0.2,0,1.03,0.01,0.06,0.1,0.09,0.1,0,0,0,1.0399999999999991,0.14,0.05
2022-07-01 16:20:00,0,0.1,0.1,0,0.8400000000000001,0.02,0.07,0.08,0.1,0,0,0,0,0.8299999999999983,0.13,0.04
2022-07-01 16:30:00,0,0.1,0.2,0,1.2400000000000002,0.02,0.06,0.06,0.05,0,0,0,0,1.240000000000002,0.14,0.05
2022-07-01 16:40:00,0,0.2,0.1,0,1.1300000000000001,0.02,0.06,0.05,0.05,0.1,0,0,0,1.129999999999999,0.14,0.04
2022-07-01 16:50:00,0,0.1,0.2,0,1.54,0.02,0.07,0.05,0.05,0,0,0,0,1.5100000000000016,0.14,0.04
2022-07-01 17:00:00,0,0.1,0.2,0,1.4400000000000002,0.02,0.06,0.09,0.1,0.1,0,0,0,1.4100000000000001,0.14,0.05
2022-07-01 17:10:00,0,0,0.30000000000000004,0,1.4400000000000002,0.02,0.07,0.1,0.09,0,0,0,0,1.3999999999999986,0.12,0.04
2022-07-01 17:20:00,0,0,0.2,0,1.33,0.01,0.06,0.09,0.09,0.1,0,0,0,1.3000000000000007,0.12,0.05
2022-07-01 17:30:00,0,0,0.1,0,1.4400000000000002,0.02,0.07,0.09,0.09,0,0,0,0,1.3999999999999986,0.13,0.04
2022-07-01 17:40:00,0,0,0.30000000000000004,0,1.4400000000000002,0.02,0.06,0.1,0.09,0,0,0,0,1.3999999999999986,0.12,0.05
2022-07-01 17:50:00,0,0,0.1,0.1,1.34,0.02,0.06,0.1,0.1,0.1,0,0,0,1.3000000000000007,0.13,0.04
2022-07-01 18:00:00,0,0,0.2,0.1,1.33,0.02,0.07,0.09,0.09,0,0.1,0,0,1.3000000000000007,0.12,0.05
2022-07-01 18:10:00,0,0,0.30000000000000004,0.1,1.2400000000000002,0.02,0.06,0.1,0.09,0.1,0.1,0,0,1.1999999999999993,0.12,0.04
2022-07-01 18:20:00,0,0,0.1,0.1,1.2400000000000002,0.02,0.07,0.09,0.1,0,0,0,0,1.1999999999999993,0.13,0.05
2022-07-01 18:30:00,0,0,0.2,0,1.1400000000000001,0.02,0.06,0.1,0.09,0.1,0,0,0,1.1000000000000014,0.12,0.04
2022-07-01 18:40:00,0,0,0.1,0.1,1.2300000000000002,0.01,0.07,0.09,0.09,0,0,0,0,1.1999999999999993,0.13,0.04
2022-07-01 18:50:00,0,0,0.2,0.1,0.8400000000000001,0.02,0.06,0.1,0.09,0.1,0,0,0,0.8000000000000007,0.13,0.05
2022-07-01 19:00:00,0,0,0.1,0,0.7400000000000001,0.02,0.07,0.1,0.1,0,0,0,0,0.7099999999999973,0.12,0.05
2022-07-01 19:10:00,0,0,0.2,0.1,1.1400000000000001,0.02,0.06,0.09,0.1,0,0,0,0,1.1000000000000014,0.12,0.04
2022-07-01 19:20:00,0,0,0.2,0,1.2400000000000002,0.02,0.07,0.1,0.09,0.1,0,0,0,1.1999999999999993,0.13,0.05
2022-07-01 19:30:00,0,0,0.2,0.1,1.03,0.02,0.07,0.1,0.1,0,0,0,0,1,0.13,0.04
2022-07-01 19:40:00,0,0,0.1,0,1.04,0.02,0.06,0.1,0.09,0.1,0,0,0,1,0.12,0.05
2022-07-01 19:50:00,0,0,0.30000000000000004,0,1.1400000000000001,0.02,0.07,0.09,0.09,0,0,0,0,1.1000000000000014,0.13,0.04
2022-07-01 20:00:00,0,0,0,0,0.7300000000000001,0.02,0.06,0.06,0.1,0,0,0,0,0.6999999999999993,0.13,0.05
2022-07-01 20:10:00,0,0,0.2,0,0.8300000000000001,0.02,0.07,0.05,0.1,0.1,0,0,0,0.8000000000000007,0.12,0.05
2022-07-01 20:20:00,0,0,0.30000000000000004,0,0.7300000000000001,0.02,0.06,0.06,0.09,0,0,0,0,0.6999999999999993,0.13,0.04
2022-07-01 20:30:00,0,0,0.2,0,0.42000000000000004,0.02,0.07,0.05,0.1,0.1,0,0,0,0.3999999999999986,0.13,0.05
2022-07-01 20:40:00,0,0,0.2,0,0.7200000000000001,0.01,0.07,0.06,0.05,0,0,0,0,0.6999999999999993,0.13,0.04
2022-07-01 20:50:00,0,0,0.1,0,0.6200000000000001,0.02,0.06,0.05,0.05,0.1,0,0,0,0.6000000000000014,0.12,0.05
2022-07-01 21:00:00,0,0,0.1,0,0.52,0.02,0.07,0.06,0.06,0,0,0,0,0.5,0.13,0.05
2022-07-01 21:10:00,0,0,0,0,0.6200000000000001,0.02,0.06,0.05,0.05,0,0,0,0,0.6000000000000014,0.12,0.04
2022-07-01 21:20:00,0,0,0.2,0,0.42000000000000004,0.02,0.07,0.06,0.06,0.1,0,0,0,0.3999999999999986,0.13,0.05
2022-07-01 21:30:00,0,0,0.1,0,0.32000000000000006,0.02,0.07,0.06,0.06,0,0,0,0,0.3000000000000007,0.13,0.04
2022-07-01 21:40:00,0,0,0,0,0.52,0.02,0.06,0.05,0.05,0.1,0,0,0,0.5,0.12,0.05
2022-07-01 21:50:00,0,0,0,0,0.31000000000000005,0.02,0.06,0.05,0.05,0,0,0,0,0.3000000000000007,0.13,0.04
2022-07-01 22:00:00,0,0,0,0,0,0.02,0.06,0.06,0.06,0.1,0,0,0,0,0.13,0.05
2022-07-01 22:10:00,0,0,0,0,0,0.02,0.05,0.06,0.06,0,0,0,0,0,0.12,0.04
2022-07-01 22:20:00,0,0,0,0,0,0.02,0.05,0.05,0.05,0,0,0,0,0,0.13,0.05
2022-07-01 22:30:00,0,0,0,0,0,0.02,0.06,0.05,0.05,0.1,0,0,0,0,0.12,0.04
2022-07-01 22:40:00,0,0,0,0,0,0.02,0.05,0.06,0.06,0,0,0,0,0,0.12,0.05
2022-07-01 22:50:00,0,0,0,0,0,0.01,0.05,0.05,0.05,0.1,0,0,0,0,0.13,0.04
2022-07-01 23:00:00,0,0,0,0,0,0.02,0.06,0.05,0.05,0,0,0,0,0,0.12,0.05
2022-07-01 23:10:00,0,0,0,0,0,0.02,0.05,0.06,0.06,0,0,0,0,0,0.13,0.04
2022-07-01 23:20:00,0,0,0,0,0,0.02,0.05,0.05,0.05,0.1,0,0,0,0,0.12,0.05
2022-07-01 23:30:00,0,0,0,0,0,0.02,0.06,0.06,0.06,0,0,0,0,0,0.12,0.04
2022-07-01 23:40:00,0,0,0,0,0,0.02,0.05,0.05,0.05,0.1,0,0,0,0,0.13,0.05
2022-07-01 23:50:00,0,0,0,0,0,0.02,0.05,0.05,0.05,0,0,0,0,0,0.12,0.04
2022-07-02 00:00:00,0,0,0.1,0,0,0.02,0.05,0.06,0.06,0.1,0,0,0,0,0.12,0.05
2022-07-02 00:10:00,0,0,0,0,0,0.02,0.06,0.05,0.05,0,0,0,0,0,0.13,0.04
2022-07-02 00:20:00,0,0,0,0,0,0.01,0.05,0.06,0.06,0,0,0,0,0,0.13,0.05
2022-07-02 00:30:00,0,0,0,0,0,0.02,0.05,0.05,0.05,0.1,0,0,0,0,0.12,0.04
2022-07-02 00:40:00,0,0,0,0,0,0.02,0.06,0.06,0.06,0,0,0,0,0,0.13,0.05
2022-07-02 00:50:00,0,0,0,0,0,0.02,0.05,0.05,0.05,0,0,0,0,0,0.13,0.04
2022-07-02 01:00:00,0,0,0,0,0,0.02,0.06,0.06,0.06,0.1,0,0,0,0,0.12,0.05
2022-07-02 01:10:00,0,0,0,0,0,0.02,0.05,0.05,0.05,0,0,0,0,0,0.13,0.05
2022-07-02 01:20:00,0,0,0,0,0,0.02,0.05,0.06,0.06,0.1,0,0,0,0,0.13,0.04
2022-07-02 01:30:00,0,0,0,0,0,0.02,0.06,0.05,0.05,0,0,0,0,0,0.12,0.05
2022-07-02 01:40:00,0,0,0,0,0,0.02,0.05,0.06,0.06,0,0,0,0,0,0.13,0.04
2022-07-02 01:50:00,0,0,0,0,0,0.02,0.06,0.05,0.05,0.1,0,0,0,0,0.13,0.05
2022-07-02 02:00:00,0,0,0,0,0,0.02,0.05,0.06,0.06,0,0,0,0,0,0.13,0.04
2022-07-02 02:10:00,0,0,0,0,0,0.02,0.06,0.06,0.06,0,0,0,0,0,0.13,0.05
2022-07-02 02:20:00,0,0,0,0,0,0.02,0.05,0.05,0.05,0.1,0,0,0,0,0.12,0.05
2022-07-02 02:30:00,0,0,0,0,0,0.02,0.05,0.06,0.06,0,0,0,0,0,0.13,0.04
2022-07-02 02:40:00,0,0,0,0,0,0.02,0.06,0.05,0.05,0,0,0,0,0,0.12,0.05
2022-07-02 02:50:00,0,0,0,0,0,0.02,0.05,0.06,0.06,0.1,0,0,0,0,0.13,0.05
2022-07-02 03:00:00,0,0,0,0,0,0.01,0.06,0.05,0.05,0,0,0,0,0,0.13,0.04
2022-07-02 03:10:00,0,0,0,0,0,0.02,0.05,0.06,0.06,0,0,0,0,0,0.13,0.05
2022-07-02 03:20:00,0,0,0,0,0,0.02,0.05,0.05,0.05,0.1,0,0,0,0,0.12,0.04
2022-07-02 03:30:00,0,0,0,0,0,0.02,0.06,0.06,0.06,0,0,0,0,0,0.13,0.05
2022-07-02 03:40:00,0,0,0,0,0,0.02,0.05,0.05,0.05,0.1,0,0,0,0,0.13,0.04
2022-07-02 03:50:00,0,0,0,0,0,0.02,0.06,0.06,0.06,0,0,0,0,0,0.13,0.05
2022-07-02 04:00:00,0,0,0,0,0,0.02,0.05,0.05,0.06,0,0,0,0,0,0.12,0.05
2022-07-02 04:10:00,0,0,0,0,0,0.02,0.05,0.06,0.05,0.1,0,0,0,0,0.13,0.04
2022-07-02 04:20:00,0,0,0,0,0,0.02,0.06,0.06,0.06,0,0,0,0,0,0.13,0.05
2022-07-02 04:30:00,0,0,0,0,0,0.02,0.05,0.05,0.05,0,0,0,0,0,0.12,0.04
2022-07-02 04:40:00,0,0,0,0,0,0.02,0.05,0.05,0.06,0.1,0,0,0,0,0.13,0.05
2022-07-02 04:50:00,0,0,0,0,0,0.02,0.06,0.06,0.05,0,0,0,0,0,0.12,0.04
2022-07-02 05:00:00,0,0,0,0,0,0.02,0.05,0.05,0.05,0,0,0,0,0,0.12,0.05
2022-07-02 05:10:00,0,0,0,0,0,0.01,0.05,0.05,0.06,0.1,0,0,0,0,0.13,0.04
2022-07-02 05:20:00,0,0,0,0,0,0.02,0.06,0.06,0.05,0,0,0,0,0,0.13,0.05
2022-07-02 05:30:00,0,0,0,0,0,0.02,0.05,0.05,0.06,0,0,0,0,0,0.12,0.04
2022-07-02 05:40:00,0,0,0,0,0,0.02,0.05,0.05,0.05,0.1,0,0,0,0,0.13,0.05
2022-07-02 05:50:00,0,0,0,0,0.1,0.02,0.06,0.06,0.06,0,0,0,0,0.10000000000000142,0.12,0.04
2022-07-02 06:00:00,0,0,0,0,0,0.02,0.05,0.05,0.05,0,0,0,0,0,0.13,0.05
2022-07-02 06:10:00,0,0,0,0,0,0.02,0.05,0.06,0.05,0.1,0,0,0,0,0.12,0.05
2022-07-02 06:20:00,0,0,0,0,0,0.02,0.06,0.05,0.06,0,0,0,0,0,0.13,0.04
2022-07-02 06:30:00,0,0,0,0,0,0.02,0.05,0.05,0.05,0.1,0,0,0,0,0.12,0.05
2022-07-02 06:40:00,0,0.1,0,0,0.21000000000000002,0.02,0.06,0.06,0.06,0,0,0,0,0.1999999999999993,0.13,0.04
2022-07-02 06:50:00,0,0,0,0,0.51,0.02,0.05,0.05,0.05,0,0,0,0,0.5,0.13,0.05
2022-07-02 07:00:00,0,0,0,0,0.7200000000000001,0.01,0.05,0.06,0.06,0.1,0,0,0,0.7300000000000004,0.12,0.04
2022-07-02 07:10:00,0,0,0,0,0.7200000000000001,0.02,0.05,0.05,0.05,0,0,0,0,0.6999999999999993,0.13,0.05
2022-07-02 07:20:00,0,0,0.1,0,0.6200000000000001,0.02,0.06,0.05,0.05,0,0,0,0,0.6000000000000014,0.12,0.04
2022-07-02 07:30:00,0,0,0.30000000000000004,0,0.53,0.02,0.05,0.06,0.06,0.1,0,0,0,0.5,0.13,0.05
2022-07-02 07:40:00,0,0,0.1,0,0.8300000000000001,0.02,0.05,0.05,0.05,0,0.1,0,0,0.8000000000000007,0.12,0.04
2022-07-02 07:50:00,0,0.1,0.2,0.1,0.8400000000000001,0.02,0.06,0.06,0.06,0.1,0,0,0,0.8000000000000007,0.13,0.05
2022-07-02 08:00:00,0,0,0.2,0,0.8300000000000001,0.02,0.05,0.05,0.05,0,0,0,0,0.8000000000000007,0.13,0.04
2022-07-02 08:10:00,0,0,0.2,0,0.7400000000000001,0.02,0.05,0.05,0.06,0,0,0,0,0.6999999999999993,0.12,0.05
2022-07-02 08:20:00,0,0,0.1,0,0.6300000000000001,0.02,0.06,0.06,0.05,0.1,0,0,0,0.6000000000000014,0.13,0.04
2022-07-02 08:30:00,0,0,0.2,0,0.7300000000000001,0.02,0.05,0.05,0.06,0,0,0,0,0.6999999999999993,0.12,0.05
2022-07-02 08:40:00,0,0,0.2,0,1.1400000000000001,0.02,0.05,0.06,0.05,0.1,0,0,0,1.1000000000000014,0.13,0.05
2022-07-02 08:50:00,0,0,0.2,0,0.93,0.01,0.06,0.05,0.05,0,0,0,0,0.8999999999999986,0.12,0.04
2022-07-02 09:00:00,0,0,0.2,0,1.02,0.02,0.05,0.05,0.06,0,0,0,0,1,0.13,0.04
2022-07-02 09:10:00,0,0,0.1,0,1.1300000000000001,0.02,0.05,0.06,0.05,0.1,0,0,0,1.1000000000000014,0.13,0.05
2022-07-02 09:20:00,0,0,0.1,0,1.12,0.02,0.06,0.05,0.06,0,0,0,0,1.1000000000000014,0.12,0.05
2022-07-02 09:30:00,0,0,0,0,1.03,0.02,0.05,0.05,0.05,0.1,0,0,0,1,0.12,0.04
2022-07-02 09:40:00,0,0,0,0,0.8300000000000001,0.02,0.05,0.06,0.05,0,0,0,0,0.8000000000000007,0.13,0.05
2022-07-02 09:50:00,0,0,0.1,0,0.7200000000000001,0.02,0.06,0.05,0.06,0.1,0,0,0,0.6999999999999993,0.13,0.04
2022-07-02 10:00:00,0,0,0.1,0,1.1300000000000001,0.02,0.05,0.06,0.05,0,0,0,0,1.1000000000000014,0.12,0.05
2022-07-02 10:10:00,0,0,0,0,1.02,0.02,0.05,0.05,0.06,0,0,0,0,1,0.13,0.04
2022-07-02 10:20:00,0,0,0,0,1.03,0.02,0.06,0.06,0.05,0.1,0,0,0,1,0.12,0.05
2022-07-02 10:30:00,0,0,0.1,0,1.02,0.02,0.05,0.05,0.06,0,0,0,0,1,0.13,0.04
2022-07-02 10:40:00,0,0,0.1,0,1.03,0.01,0.05,0.06,0.05,0.1,0,0,0,1,0.12,0.05
2022-07-02 10:50:00,0,0,0,0,1.1300000000000001,0.02,0.06,0.05,0.06,0,0,0,0,1.1000000000000014,0.13,0.04
2022-07-02 11:00:00,0,0,0.1,0,1.12,0.02,0.05,0.05,0.05,0.1,0,0,0,1.1000000000000014,0.13,0.05
2022-07-02 11:10:00,0,0,0,0,1.1300000000000001,0.02,0.05,0.06,0.05,0,0,0,0,1.1000000000000014,0.12,0.04
2022-07-02 11:20:00,0,0,0.1,0,1.1300000000000001,0.02,0.06,0.05,0.06,0.1,0,0,0,1.1000000000000014,0.12,0.05
2022-07-02 11:30:00,0,0,0,0,1.03,0.02,0.05,0.06,0.05,0,0,0,0,1,0.13,0.05
2022-07-02 11:40:00,0,0,0.1,0,1.03,0.02,0.05,0.05,0.06,0.1,0,0,0,1,0.12,0.04
2022-07-02 11:50:00,0,0,0.1,0,0.93,0.02,0.05,0.05,0.05,0,0,0,0,0.8999999999999986,0.13,0.05
2022-07-02 12:00:00,0,0,0,0,1.2300000000000002,0.02,0.06,0.06,0.06,0,0,0,0,1.1999999999999993,0.13,0.04
2022-07-02 12:10:00,0.07,0,0.1,0,1.03,0.02,0.05,0.05,0.05,0.1,0,0,0,1,0.12,0.05
2022-07-02 12:20:00,0.01,0,0.1,0,1.1300000000000001,0.01,0.05,0.06,0.05,0,0,0,0,1.1000000000000014,0.13,0.04
2022-07-02 12:30:00,0,0,0,0,1.1300000000000001,0.02,0.06,0.05,0.06,0.1,0,0,0,1.1000000000000014,0.12,0.05
2022-07-02 12:40:00,0,0,0.1,0,1.2300000000000002,0.02,0.05,0.05,0.05,0,0,0,0,1.1999999999999993,0.12,0.04
2022-07-02 12:50:00,0,0,0.1,0,1.1300000000000001,0.02,0.05,0.06,0.06,0.1,0,0,0,1.1000000000000014,0.13,0.04
2022-07-02 13:00:00,0,0,0.1,0,1.1300000000000001,0.02,0.05,0.05,0.05,0,0,0,0,1.1000000000000014,0.12,0.05
2022-07-02 13:10:00,0,0,0.1,0,1.04,0.02,0.06,0.05,0.05,0.1,0,0,0,1,0.13,0.05
2022-07-02 13:20:00,0,0,0.1,0,1.1300000000000001,0.02,0.05,0.06,0.06,0,0,0,0,1.1000000000000014,0.12,0.04
2022-07-02 13:30:00,0,0,0.1,0,1.1300000000000001,0.02,0.05,0.05,0.05,0,0,0,0,1.1000000000000014,0.13,0.05
2022-07-02 13:40:00,0,0,0.1,0,1.1300000000000001,0.02,0.06,0.06,0.06,0.1,0,0,0,1.1000000000000014,0.12,0.04
2022-07-02 13:50:00,0,0,0,0,1.03,0.02,0.05,0.05,0.05,0,0,0,0,1,0.13,0.05
2022-07-02 14:00:00,0,0,0.1,0,1.1400000000000001,0.01,0.05,0.06,0.06,0.1,0,0,0,1.1000000000000014,0.12,0.04
2022-07-02 14:10:00,0,0,0.2,0,1.1300000000000001,0.02,0.06,0.05,0.05,0,0,0,0,1.1000000000000014,0.13,0.05
2022-07-02 14:20:00,0,0,0.1,0,1.1300000000000001,0.02,0.05,0.05,0.06,0.1,0,0,0,1.1000000000000014,0.12,0.04
2022-07-02 14:30:00,0,0,0.1,0,1.1300000000000001,0.02,0.05,0.06,0.05,0,0,0,0,1.1000000000000014,0.13,0.05
2022-07-02 14:40:00,0,0,0.1,0,1.04,0.02,0.06,0.05,0.06,0.1,0,0,0,1,0.12,0.04
2022-07-02 14:50:00,0,0,0.1,0,1.33,0.02,0.05,0.06,0.05,0,0,0,0,1.3000000000000007,0.13,0.05
2022-07-02 15:00:00,0,0,0,0,0.8300000000000001,0.02,0.05,0.05,0.06,0,0,0,0,0.8000000000000007,0.13,0.05
2022-07-02 15:10:00,0,0,0.1,0,0.7300000000000001,0.02,0.06,0.06,0.05,0.1,0,0,0,0.6999999999999993,0.12,0.04
2022-07-02 15:20:00,0,0,0.1,0,1.1400000000000001,0.02,0.05,0.05,0.06,0.1,0,0,0,1.1000000000000014,0.13,0.05
2022-07-02 15:30:00,0,0,0.1,0,1.1300000000000001,0.02,0.05,0.06,0.05,0,0,0,0,1.1000000000000014,0.12,0.04
2022-07-02 15:40:00,0,0,0.1,0,1.2300000000000002,0.02,0.06,0.05,0.06,0,0,0,0,1.1999999999999993,0.13,0.05
2022-07-02 15:50:00,0,0,0.1,0.1,0.7300000000000001,0.02,0.05,0.06,0.05,0.1,0,0,0,0.6999999999999993,0.12,0.04
2022-07-02 16:00:00,0,0,0.1,0,1.2300000000000002,0.01,0.05,0.05,0.06,0,0,0,0,1.1999999999999993,0.13,0.05
2022-07-02 16:10:00,0,0,0,0,1.1400000000000001,0.02,0.06,0.06,0.05,0.1,0,0,0,1.1000000000000014,0.12,0.04
2022-07-02 16:20:00,0,0,0.1,0,1.12,0.02,0.05,0.05,0.06,0,0,0,0,1.1000000000000014,0.13,0.05
2022-07-02 16:30:00,0,0,0.1,0,1.12,0.02,0.05,0.06,0.05,0.1,0,0,0,1.1000000000000014,0.13,0.05
2022-07-02 16:40:00,0,0,0.1,0,1.1300000000000001,0.02,0.06,0.05,0.06,0,0,0,0,1.1000000000000014,0.12,0.04
2022-07-02 16:50:00,0,0,0.1,0,1.02,0.02,0.05,0.06,0.05,0.1,0,0,0,1,0.13,0.05
2022-07-02 17:00:00,0,0,0.1,0,1.02,0.02,0.05,0.05,0.06,0,0,0,0,1,0.12,0.04
2022-07-02 17:10:00,0,0,0.1,0,0.8200000000000001,0.02,0.06,0.06,0.06,0,0,0,0,0.8000000000000007,0.13,0.05
2022-07-02 17:20:00,0,0,0,0,0.52,0.02,0.05,0.05,0.05,0.1,0,0,0,0.5,0.13,0.05
2022-07-02 17:30:00,0,0,0.1,0,0.92,0.02,0.06,0.06,0.06,0,0,0,0,0.8999999999999986,0.12,0.04
2022-07-02 17:40:00,0,0,0.1,0,0.6200000000000001,0.02,0.05,0.06,0.05,0.1,0,0,0,0.6000000000000014,0.13,0.05
2022-07-02 17:50:00,0,0,0.1,0,0.6200000000000001,0.02,0.05,0.05,0.05,0,0,0,0,0.6000000000000014,0.12,0.04
2022-07-02 18:00:00,0,0,0.1,0,0.6200000000000001,0.01,0.05,0.05,0.06,0,0,0,0,0.6000000000000014,0.13,0.05
2022-07-02 18:10:00,0,0,0,0,0.6100000000000001,0.02,0.06,0.06,0.05,0.1,0,0,0,0.6000000000000014,0.12,0.04
2022-07-02 18:20:00,0,0,0.1,0,0.32000000000000006,0.02,0.05,0.05,0.06,0,0,0,0,0.3000000000000007,0.12,0.05
2022-07-02 18:30:00,0,0,0.1,0,0.42000000000000004,0.02,0.05,0.06,0.05,0.1,0,0,0,0.3999999999999986,0.13,0.04
2022-07-02 18:40:00,0,0,0.1,0,0.41000000000000003,0.02,0.06,0.05,0.06,0,0,0,0,0.3999999999999986,0.12,0.05